Location: Eaton
(41.3139°N, 82.0207°W)
Time: 02:06:37
(UTC+00:00)

Spot 2 Rocket - Pass Details

Date: 17 June 2021
Orbit: 757 x 772 km, 98.5° (Epoch: 02 August)

Event Time Altitude Azimuth Distance (km) Brightness Sun altitude
Exits shadow 02:18:27 16° 138° (SE) 1,906 4.9 -11.7°
Maximum altitude 02:22:13 46° 71° (ENE) 1,017 4.0 -12.2°
Drops below altitude 10° 02:27:04 10° 359° (N) 2,310 6.7 -12.8°
Sets 02:29:27 0° 353° (N) 3,243 7.7 -13.1°
